[[{"header":{"parameterUnit":"m.s-1","parameterCategory":1,"la1":30.2991,"la2":30.254,"lo1":-89.0895,"lo2":-89.0444,"dy":0.0017,"dx":0.0017,"nx":28,"ny":28,"refTime":"2024-07-24T21:00:00:Z","depth":0,"parameterNumber":2,"parameterNumberName":"U-component_of_WINDS"},"data":[0,0,0,0,0,0,0,0,0,0,0,0,0,0,0,0,0,0,0,0,0,0,0,0,0,0,0,0,0,0,0,0,0,0,0,0,0,0,0,0,0,0,0,0,0,0,0,0,0,0,0,0,0,0,0,0,0,0,3.163,3.1631,0,3.1701,3.1701,3.1702,3.1632,3.1629,3.1627,3.1624,3.1695,3.1699,3.1704,0,0,0,0,0,0,0,0,0,0,0,0,0,3.143,3.1434,3.163,3.1631,3.1632,3.17,3.1701,3.1702,3.1633,3.1629,3.1626,3.1623,3.1693,3.1699,3.1704,0,0,0,0,0,0,0,0,0,0,0,0,0,3.151,3.1435,3.163,3.1605,3.1603,3.17,3.1701,3.1703,3.1633,3.1629,3.1625,3.1621,3.1692,3.1698,3.1705,3.1829,0,0,3.1725,3.1728,0,0,0,0,0,0,0,0,3.1506,3.1518,3.1608,3.1607,3.1605,3.1653,3.1657,3.1745,3.1634,3.1622,3.1624,3.1619,3.1684,3.1691,3.1714,3.1832,3.1835,3.1726,3.173,3.1733,3.1735,0,0,0,0,0,0,0,3.15,3.1514,3.1658,3.1609,3.1608,3.1589,3.1596,3.1673,3.1675,3.1623,3.1618,3.1627,3.1683,3.1707,3.1715,3.1836,3.1726,3.1731,3.1736,3.1738,3.2054,3.2058,0,0,0,0,0,0,3.1498,3.151,3.1655,3.166,3.1544,3.1596,3.1604,3.1642,3.1674,3.1675,3.1631,3.1624,3.1698,3.1707,3.1717,3.186,3.1733,3.1739,3.1743,3.205,3.2055,3.206,0,0,0,0,0,0,3.1494,3.1512,3.1653,3.1584,3.16,3.1604,3.1648,3.1646,3.167,3.168,3.168,3.1656,3.1695,3.1708,3.18,3.1862,3.1742,3.1748,3.2045,3.2052,3.2058,3.215,0,0,0,0,0,0,3.1488,3.1511,3.1559,3.1585,3.1604,3.1736,3.1651,3.165,3.1682,3.1673,3.1704,3.1705,3.1693,3.1791,3.1807,3.1869,3.1753,3.2039,3.2048,3.2056,3.2141,3.2159,3.2174,0,0,0,0,0,3.1482,3.1583,3.1562,3.158,3.1665,3.174,3.1751,3.1735,3.1687,3.1735,3.1741,3.1704,3.1853,3.1801,3.1819,3.1883,3.2035,3.2045,3.2055,3.2134,3.2156,3.2174,0,0,0,0,0,0,3.1564,3.1586,3.1563,3.1676,3.1707,3.1728,3.1788,3.1759,3.1804,3.1794,3.1773,3.178,3.1877,3.189,3.1832,3.2002,3.1936,3.195,3.199,3.2011,3.2027,3.202,3.1759,0,0,0,0,0,3.1596,3.1656,3.1672,3.177,3.1786,3.1785,3.1817,3.1802,3.1833,3.1845,3.1858,3.1889,3.1942,3.1977,3.2027,3.2144,3.2147,3.2197,3.2213,3.2226,3.2237,3.2295,3.2316,3.2092,3.2092,3.2092,0,0,3.1661,3.168,3.172,3.1787,3.1809,3.1869,3.1796,3.1865,3.1908,3.1856,3.1943,3.1954,3.1986,3.209,3.2136,3.2103,3.23,3.2239,3.2249,3.2253,3.2307,3.2328,3.2347,3.2099,3.2098,3.2097,0,0,3.181,3.1833,3.1915,3.1938,3.1972,3.1969,3.1989,3.2015,3.2019,3.2107,3.2067,3.2118,3.2212,3.2235,3.2259,3.2414,3.238,3.2431,3.2514,3.2571,3.2588,3.2604,3.2655,3.2674,3.2443,3.2443,3.2443,0,3.1887,3.1978,3.1961,3.2031,3.2059,3.2014,3.2095,3.2118,3.2167,3.2187,3.215,3.2263,3.2282,3.2388,3.2425,3.2448,3.2467,3.2426,3.2588,3.2603,3.2617,3.2665,3.2685,3.2449,3.2448,3.2447,3.2447,0,3.2068,3.2132,3.2194,3.224,3.2276,3.2352,3.2344,3.2382,3.2364,3.2365,3.2452,3.2473,3.2524,3.2549,3.2533,3.2652,3.263,3.2591,3.2523,3.2644,3.2688,3.2707,3.2457,3.2455,3.2453,3.2452,0,0,3.2272,3.2306,3.2328,3.2347,3.2379,3.2427,3.2499,3.2549,3.258,3.2615,3.2672,3.2751,3.2714,3.2741,3.2727,3.2777,3.2892,3.2731,3.2731,3.2756,3.302,3.3046,3.3068,3.2871,3.2875,3.2878,3.3015,0,3.2419,3.2543,3.2528,3.2647,3.2702,3.2659,3.2721,3.2746,3.2749,3.2795,3.2798,3.2852,3.2801,3.2817,3.2865,3.2868,3.2944,3.2859,3.2921,3.2923,3.291,3.3092,3.3121,3.325,3.3033,3.3036,3.3038,0,3.2607,3.2646,3.277,3.2789,3.2812,3.2869,3.291,3.2957,3.2983,3.2981,3.3011,3.2986,3.3056,3.2989,3.3082,3.3024,3.3049,3.3054,3.3059,3.3061,3.2986,3.3095,3.3291,3.3309,3.3067,3.3064,3.3062,0,3.2737,3.2821,3.2905,3.2923,3.2949,3.2989,3.3002,3.3025,3.3054,3.3091,3.3109,3.3154,3.3178,3.3212,3.3199,3.3153,3.3294,3.3227,3.3291,3.3291,3.332,3.3318,3.3519,3.3343,3.3343,3.3342,3.3342,0,3.29,3.2976,3.2963,3.3014,3.3097,3.3078,3.316,3.3168,3.3188,3.3238,3.3204,3.3252,3.3234,3.328,3.3271,3.3346,3.3359,3.3357,3.3352,3.3358,3.3357,3.3371,3.336,3.3347,3.3346,3.3345,3.3344,0,3.3059,3.3053,3.314,3.3158,3.3164,3.3224,3.3237,3.3284,3.3283,3.3346,3.336,3.3359,3.341,3.3402,3.346,3.3454,3.3547,3.3534,3.3537,3.3533,3.3596,3.3588,3.3809,3.3835,3.3647,3.3649,3.365,0,3.3161,3.3218,3.3241,3.3272,3.3287,3.3338,3.3366,3.335,3.3381,3.3414,3.3456,3.3505,3.3542,3.3627,3.363,3.3673,3.3658,3.3732,3.3664,3.3666,3.3653,3.3649,3.3652,3.3745,3.3747,3.3749,3.375,0,3.3343,3.3336,3.3379,3.3421,3.3456,3.3489,3.3517,3.3545,3.353,3.3567,3.3618,3.3648,3.3705,3.3752,3.3792,3.3804,3.3773,3.3772,3.3788,3.3792,3.379,3.3787,3.357,3.3766,3.3765,3.3764,3.3763,3.3762,3.3473,3.352,3.3542,3.359,3.361,3.3636,3.3679,3.3683,3.3726,3.3771,3.3759,3.3817,3.3839,3.3889,3.3904,3.3948,3.392,3.3945,3.395,3.3956,3.3961,3.3786,3.3956,3.3955,3.3955,3.3955,3.3954,0,3.3649,3.366,3.3705,3.3744,3.3782,3.3751,3.378,3.3813,3.3864,3.3887,3.3924,3.3982,3.4027,3.4033,3.4075,3.4108,3.4095,3.4119,3.4114,3.4116,3.3986,3.3965,3.4129,3.4129,3.4129,3.4129,3.4128,3.4128,3.3744,3.382,3.3816,3.39,3.391,3.3966,3.3985,3.4008,3.4026,3.4091,3.4128,3.4132,3.4147,3.4189,3.4228,3.4228,3.4243,3.4272,3.4267,3.4144,3.4126,3.411,3.409,3.4277,3.4277,3.4393,3.4394,3.4395]},{"header":{"parameterUnit":"m.s-1","parameterCategory":1,"la1":30.2991,"la2":30.254,"lo1":-89.0895,"lo2":-89.0444,"dy":0.0017,"dx":0.0017,"nx":28,"ny":28,"refTime":"2024-07-24T21:00:00:Z","depth":0,"parameterNumber":3,"parameterNumberName":"V-component_of_WINDS"},"data":[0,0,0,0,0,0,0,0,0,0,0,0,0,0,0,0,0,0,0,0,0,0,0,0,0,0,0,0,0,0,0,0,0,0,0,0,0,0,0,0,0,0,0,0,0,0,0,0,0,0,0,0,0,0,0,0,0,0,2.2301,2.2302,0,2.2322,2.2322,2.2323,2.2301,2.23,2.2299,2.2298,2.2318,2.2319,2.2321,0,0,0,0,0,0,0,0,0,0,0,0,0,2.2239,2.2241,2.2301,2.2302,2.2302,2.2322,2.2322,2.2323,2.2301,2.23,2.2299,2.2298,2.2318,2.2319,2.2321,0,0,0,0,0,0,0,0,0,0,0,0,0,2.2264,2.2241,2.2301,2.2293,2.2293,2.2322,2.2323,2.2323,2.2301,2.23,2.2299,2.2297,2.2317,2.2319,2.2321,2.2358,0,0,2.2327,2.2328,0,0,0,0,0,0,0,0,2.2263,2.2266,2.2294,2.2294,2.2294,2.2308,2.2308,2.2335,2.2302,2.2298,2.2298,2.2297,2.2316,2.2318,2.2324,2.2359,2.236,2.2327,2.2328,2.2329,2.233,0,0,0,0,0,0,0,2.2261,2.2265,2.2309,2.2295,2.2294,2.2288,2.229,2.2313,2.2314,2.2298,2.2297,2.23,2.2315,2.2322,2.2324,2.236,2.2327,2.2329,2.233,2.2331,2.2425,2.2426,0,0,0,0,0,0,2.226,2.2264,2.2309,2.231,2.2275,2.229,2.2292,2.2304,2.2313,2.2313,2.2301,2.2298,2.232,2.2322,2.2325,2.2368,2.2329,2.2331,2.2332,2.2423,2.2425,2.2427,0,0,0,0,0,0,2.2259,2.2265,2.2308,2.2287,2.2292,2.2292,2.2306,2.2305,2.2313,2.2315,2.2315,2.2308,2.2319,2.2322,2.235,2.2368,2.2332,2.2334,2.2422,2.2424,2.2426,2.2454,0,0,0,0,0,0,2.2258,2.2264,2.2279,2.2287,2.2293,2.2333,2.2307,2.2307,2.2316,2.2314,2.2322,2.2322,2.2318,2.2347,2.2352,2.237,2.2335,2.242,2.2423,2.2425,2.2451,2.2457,2.2461,0,0,0,0,0,2.2255,2.2287,2.228,2.2286,2.2312,2.2334,2.2338,2.2333,2.2318,2.2332,2.2334,2.2322,2.2366,2.235,2.2355,2.2374,2.2419,2.2422,2.2425,2.2449,2.2456,2.2461,0,0,0,0,0,0,2.2281,2.2288,2.2281,2.2315,2.2325,2.2331,2.2349,2.234,2.2353,2.235,2.2343,2.2345,2.2374,2.2377,2.236,2.241,2.239,2.2394,2.2406,2.2413,2.2417,2.2415,2.2337,0,0,0,0,0,2.2291,2.2309,2.2314,2.2344,2.2349,2.2348,2.2358,2.2353,2.2362,2.2366,2.2369,2.2378,2.2393,2.2403,2.2418,2.2452,2.2452,2.2468,2.2473,2.2477,2.248,2.2496,2.2502,2.2436,2.2436,2.2436,0,0,2.2311,2.2317,2.2329,2.2349,2.2356,2.2374,2.2352,2.2372,2.2385,2.2369,2.2394,2.2397,2.2406,2.2437,2.245,2.244,2.2498,2.248,2.2484,2.2485,2.25,2.2506,2.2512,2.2438,2.2438,2.2438,0,0,2.2356,2.2363,2.2388,2.2395,2.2405,2.2404,2.241,2.2418,2.2419,2.2444,2.2432,2.2447,2.2474,2.248,2.2487,2.2533,2.2522,2.2539,2.2563,2.2579,2.2585,2.2589,2.2604,2.2609,2.2542,2.2542,2.2542,0,2.2379,2.2407,2.2402,2.2423,2.2431,2.2418,2.2442,2.2449,2.2463,2.2468,2.2457,2.249,2.2495,2.2526,2.2537,2.2544,2.2549,2.2537,2.2584,2.2589,2.2593,2.2607,2.2612,2.2544,2.2544,2.2543,2.2543,0,2.2434,2.2453,2.2472,2.2486,2.2496,2.2519,2.2516,2.2528,2.2522,2.2522,2.2547,2.2553,2.2567,2.2575,2.257,2.2604,2.2597,2.2586,2.2565,2.2601,2.2614,2.2619,2.2546,2.2546,2.2545,2.2545,0,0,2.2496,2.2506,2.2513,2.2518,2.2527,2.2541,2.2563,2.2577,2.2586,2.2596,2.2612,2.2635,2.2624,2.2631,2.2627,2.2641,2.2675,2.2627,2.2627,2.2634,2.2711,2.2718,2.2725,2.2668,2.2669,2.267,2.271,0,2.254,2.2577,2.2572,2.2607,2.2623,2.261,2.2628,2.2636,2.2636,2.2649,2.2649,2.2665,2.265,2.2654,2.2668,2.2668,2.269,2.2665,2.2682,2.2682,2.2678,2.2732,2.274,2.2777,2.2715,2.2716,2.2716,0,2.2596,2.2607,2.2644,2.2649,2.2656,2.2672,2.2684,2.2697,2.2705,2.2704,2.2712,2.2704,2.2724,2.2704,2.273,2.2714,2.272,2.2721,2.2723,2.2723,2.27,2.2731,2.2789,2.2794,2.2724,2.2724,2.2723,0,2.2634,2.2659,2.2684,2.2689,2.2696,2.2708,2.2711,2.2717,2.2726,2.2736,2.2741,2.2753,2.276,2.2769,2.2764,2.2751,2.2791,2.2771,2.2789,2.2789,2.2797,2.2796,2.2854,2.2804,2.2804,2.2804,2.2804,0,2.2683,2.2705,2.2701,2.2716,2.274,2.2734,2.2758,2.2759,2.2765,2.2779,2.2769,2.2782,2.2776,2.2789,2.2785,2.2806,2.281,2.2808,2.2807,2.2808,2.2808,2.2811,2.2808,2.2806,2.2805,2.2805,2.2805,0,2.2729,2.2728,2.2753,2.2758,2.2759,2.2776,2.278,2.2793,2.2793,2.281,2.2814,2.2813,2.2827,2.2824,2.284,2.2837,2.2863,2.2859,2.286,2.2859,2.2876,2.2874,2.2937,2.2944,2.2891,2.2892,2.2892,0,2.2759,2.2776,2.2782,2.2791,2.2795,2.2809,2.2817,2.2812,2.2821,2.283,2.2842,2.2855,2.2865,2.2888,2.2888,2.2899,2.2895,2.2916,2.2896,2.2896,2.2892,2.2891,2.2891,2.2919,2.292,2.292,2.2921,0,2.2812,2.281,2.2822,2.2834,2.2844,2.2853,2.2861,2.2868,2.2864,2.2874,2.2888,2.2896,2.2911,2.2924,2.2934,2.2937,2.2927,2.2927,2.2932,2.2932,2.2931,2.293,2.2869,2.2925,2.2925,2.2925,2.2924,2.2924,2.285,2.2863,2.2869,2.2882,2.2888,2.2895,2.2907,2.2908,2.292,2.2932,2.2928,2.2944,2.2949,2.2962,2.2966,2.2978,2.2969,2.2976,2.2978,2.2979,2.298,2.2931,2.298,2.298,2.2979,2.2979,2.2979,0,2.29,2.2903,2.2915,2.2926,2.2936,2.2928,2.2935,2.2944,2.2958,2.2964,2.2974,2.299,2.3002,2.3003,2.3014,2.3023,2.3018,2.3025,2.3024,2.3024,2.2988,2.2982,2.3028,2.3028,2.3028,2.3028,2.3028,2.3028,2.2927,2.2948,2.2947,2.297,2.2973,2.2988,2.2993,2.2999,2.3004,2.3022,2.3031,2.3032,2.3035,2.3046,2.3057,2.3056,2.306,2.3068,2.3066,2.3032,2.3027,2.3022,2.3017,2.307,2.307,2.3101,2.3102,2.3102]}]]